| time (UTC) | temp F | wind direction | speed MPH | gust MPH | rain 1hr in | rain 24hr in | rain mn in | humidity % | barometer mb |
| 20260905080038 | 67 | 113 | 1.0 | 4.0 | 0.00 | 0.00 | 0.00 | 94 | 1009.9 |
| 20260905074600 | 67 | 70 | 1.0 | 5.0 | 0.00 | 0.00 | 0.00 | 94 | 1010.2 |
| 20260905073114 | 67 | 56 | 1.0 | 3.0 | 0.00 | 0.00 | 0.00 | 94 | 1010.3 |
| 20260905071524 | 68 | 137 | 1.0 | 3.0 | 0.00 | 0.00 | 0.00 | 94 | 1010.4 |
| 20260905070020 | 68 | 103 | 2.0 | 5.0 | 0.00 | 0.00 | 0.00 | 94 | 1010.6 |
| 20260905064507 | 67 | 133 | 1.0 | 4.0 | 0.00 | 0.00 | 0.00 | 94 | 1010.6 |
| 20260905063028 | 65 | 157 | 0.0 | 1.0 | 0.00 | 0.00 | 0.00 | 93 | 1010.6 |
| 20260905061622 | 65 | 157 | 0.0 | 1.0 | 0.00 | 0.00 | 0.00 | 93 | 1010.8 |
| 20260905060052 | 65 | 157 | 1.0 | 2.0 | 0.00 | 0.00 | 0.00 | 93 | 1010.8 |
| 20260905054530 | 66 | 157 | 0.0 | 0.0 | 0.00 | 0.00 | 0.00 | 93 | 1010.7 |
| 20260905053034 | 65 | 157 | 0.0 | 0.0 | 0.00 | 0.00 | 0.00 | 93 | 1010.5 |
| 20260905051529 | 65 | 157 | 0.0 | 0.0 | 0.00 | 0.00 | 0.00 | 92 | 1010.4 |
| 20260905050043 | 65 | 157 | 0.0 | 0.0 | 0.00 | 0.00 | 0.00 | 92 | 1010.3 |
| 20260905044603 | 66 | 157 | 0.0 | 1.0 | 0.00 | 0.00 | 0.00 | 92 | 1010.2 |
| 20260905043020 | 67 | 157 | 0.0 | 2.0 | 0.00 | 0.00 | 0.00 | 91 | 1010.0 |
| 20260905041527 | 67 | 157 | 0.0 | 1.0 | 0.00 | 0.00 | 0.00 | 92 | 1009.9 |
| 20260905040027 | 68 | 157 | 0.0 | 1.0 | 0.00 | 0.00 | 0.00 | 92 | 1010.1 |
| 20260905034522 | 68 | 157 | 0.0 | 0.0 | 0.00 | 0.00 | 0.00 | 91 | 1009.9 |
| 20260905033053 | 68 | 157 | 1.0 | 2.0 | 0.00 | 0.00 | 0.00 | 91 | 1010.0 |
| 20260905031616 | 69 | 157 | 0.0 | 3.0 | 0.00 | 0.00 | 0.00 | 91 | 1009.8 |
| 20260905030044 | 67 | 1 | 0.0 | 1.0 | 0.00 | 0.00 | 0.00 | 90 | 1009.6 |
| 20260905024552 | 68 | 1 | 1.0 | 2.0 | 0.00 | 0.00 | 0.00 | 90 | 1009.9 |
| 20260905023037 | 70 | 1 | 0.0 | 3.0 | 0.00 | 0.00 | 0.00 | 88 | 1009.4 |
| 20260905021540 | 71 | 137 | 3.0 | 6.0 | 0.00 | 0.00 | 0.00 | 89 | 1008.8 |
| 20260905020048 | 69 | 146 | 2.0 | 4.0 | 0.00 | 0.00 | 0.00 | 90 | 1008.8 |
| 20260905014555 | 67 | 93 | 0.0 | 1.0 | 0.00 | 0.00 | 0.00 | 89 | 1009.0 |
| 20260905013014 | 68 | 93 | 0.0 | 0.0 | 0.00 | 0.00 | 0.00 | 87 | 1008.6 |
| 20260905011528 | 70 | 93 | 0.0 | 0.0 | 0.00 | 0.00 | 0.00 | 87 | 1008.6 |
| 20260905010050 | 71 | 93 | 0.0 | 0.0 | 0.00 | 0.00 | 0.00 | 84 | 1008.4 |
| 20260905004612 | 74 | 93 | 0.0 | 0.0 | 0.00 | 0.00 | 0.00 | 83 | 1008.5 |
| 20260905003024 | 75 | 93 | 0.0 | 0.0 | 0.00 | 0.00 | 0.00 | 81 | 1008.4 |
| 20260905001542 | 76 | 93 | 0.0 | 2.0 | 0.00 | 0.00 | 0.00 | 78 | 1008.5 |
| 20260905000048 | 78 | 78 | 2.0 | 5.0 | 0.00 | 0.00 | 0.00 | 75 | 1008.4 |
| 20260904234557 | 78 | 60 | 2.0 | 7.0 | 0.00 | 0.00 | 0.00 | 73 | 1008.4 |
| 20260904233023 | 80 | 81 | 2.0 | 7.0 | 0.00 | 0.00 | 0.00 | 72 | 1008.4 |
| 20260904231508 | 81 | 105 | 2.0 | 9.0 | 0.00 | 0.00 | 0.00 | 68 | 1008.4 |
| 20260904230017 | 81 | 65 | 2.0 | 5.0 | 0.00 | 0.00 | 0.00 | 67 | 1008.5 |
| 20260904224516 | 83 | 54 | 3.0 | 8.0 | 0.00 | 0.00 | 0.00 | 66 | 1008.4 |
| 20260904223017 | 84 | 68 | 3.0 | 8.0 | 0.00 | 0.00 | 0.00 | 63 | 1008.2 |
| 20260904221529 | 83 | 123 | 3.0 | 7.0 | 0.00 | 0.00 | 0.00 | 64 | 1008.2 |
| 20260904220037 | 84 | 69 | 1.0 | 8.0 | 0.00 | 0.00 | 0.00 | 61 | 1008.2 |
| 20260904214523 | 85 | 61 | 5.0 | 9.0 | 0.00 | 0.00 | 0.00 | 61 | 1008.2 |
| 20260904213042 | 85 | 86 | 3.0 | 6.0 | 0.00 | 0.00 | 0.00 | 63 | 1008.3 |
| 20260904211558 | 85 | 68 | 3.0 | 7.0 | 0.00 | 0.00 | 0.00 | 62 | 1008.3 |
| 20260904210059 | 85 | 44 | 5.0 | 9.0 | 0.00 | 0.00 | 0.00 | 60 | 1008.5 |
| 20260904204610 | 85 | 26 | 4.0 | 9.0 | 0.00 | 0.00 | 0.00 | 61 | 1008.5 |
| 20260904203006 | 84 | 103 | 4.0 | 10.0 | 0.00 | 0.00 | 0.00 | 63 | 1008.4 |
| 20260904201507 | 84 | 85 | 3.0 | 7.0 | 0.00 | 0.00 | 0.00 | 62 | 1008.5 |
| 20260904200017 | 83 | 8 | 4.0 | 8.0 | 0.00 | 0.00 | 0.00 | 65 | 1008.5 |
| 20260904194603 | 85 | 53 | 2.0 | 7.0 | 0.00 | 0.00 | 0.00 | 65 | 1008.6 |
| 20260904193104 | 82 | 26 | 3.0 | 8.0 | 0.00 | 0.00 | 0.00 | 69 | 1008.7 |
| 20260904191548 | 82 | 34 | 1.0 | 6.0 | 0.00 | 0.00 | 0.00 | 67 | 1008.8 |
| 20260904190026 | 83 | 95 | 2.0 | 7.0 | 0.00 | 0.00 | 0.00 | 67 | 1008.8 |
| 20260904184521 | 80 | 30 | 3.0 | 7.0 | 0.00 | 0.00 | 0.00 | 72 | 1008.9 |
| 20260904183050 | 80 | 356 | 3.0 | 8.0 | 0.00 | 0.00 | 0.00 | 72 | 1008.9 |
| 20260904181526 | 81 | 4 | 2.0 | 6.0 | 0.00 | 0.00 | 0.00 | 70 | 1009.0 |
| 20260904180021 | 77 | 49 | 2.0 | 7.0 | 0.00 | 0.00 | 0.00 | 75 | 1008.9 |
| 20260904174556 | 77 | 46 | 3.0 | 8.0 | 0.00 | 0.00 | 0.00 | 75 | 1009.0 |
| 20260904173001 | 77 | 352 | 2.0 | 9.0 | 0.00 | 0.00 | 0.00 | 77 | 1008.9 |
| 20260904171517 | 75 | 52 | 3.0 | 7.0 | 0.00 | 0.00 | 0.00 | 81 | 1008.9 |
| 20260904170042 | 73 | 319 | 3.0 | 7.0 | 0.00 | 0.00 | 0.00 | 83 | 1008.8 |
| 20260904164530 | 72 | 13 | 2.0 | 6.0 | 0.00 | 0.00 | 0.00 | 86 | 1008.7 |
| 20260904163104 | 71 | 324 | 1.0 | 6.0 | 0.00 | 0.00 | 0.00 | 87 | 1008.5 |
| 20260904161605 | 70 | 14 | 2.0 | 6.0 | 0.00 | 0.00 | 0.00 | 88 | 1008.5 |
| 20260904160021 | 69 | 340 | 2.0 | 5.0 | 0.00 | 0.00 | 0.00 | 91 | 1008.5 |
| 20260904154527 | 68 | 325 | 1.0 | 6.0 | 0.00 | 0.00 | 0.00 | 92 | 1008.3 |
| 20260904153057 | 68 | 312 | 2.0 | 6.0 | 0.00 | 0.00 | 0.00 | 93 | 1008.2 |
| 20260904151551 | 67 | 326 | 2.0 | 6.0 | 0.00 | 0.00 | 0.00 | 94 | 1008.2 |
| 20260904150011 | 67 | 360 | 2.0 | 6.0 | 0.00 | 0.00 | 0.00 | 94 | 1008.0 |
| 20260904144512 | 66 | 355 | 2.0 | 5.0 | 0.00 | 0.00 | 0.00 | 94 | 1008.0 |
| 20260904143038 | 66 | 323 | 1.0 | 5.0 | 0.00 | 0.00 | 0.00 | 94 | 1007.9 |
| 20260904141553 | 66 | 299 | 1.0 | 5.0 | 0.00 | 0.00 | 0.00 | 94 | 1007.8 |
| 20260904140113 | 66 | 334 | 1.0 | 5.0 | 0.00 | 0.00 | 0.00 | 94 | 1007.5 |
| 20260904134601 | 66 | 359 | 2.0 | 7.0 | 0.00 | 0.00 | 0.00 | 94 | 1007.5 |
| 20260904133018 | 65 | 340 | 3.0 | 6.0 | 0.00 | 0.00 | 0.00 | 94 | 1007.5 |
| 20260904131530 | 65 | 326 | 3.0 | 7.0 | 0.00 | 0.00 | 0.00 | 94 | 1007.3 |
| 20260904130046 | 65 | 302 | 2.0 | 6.0 | 0.00 | 0.00 | 0.00 | 94 | 1007.1 |
| 20260904124541 | 65 | 337 | 3.0 | 6.0 | 0.00 | 0.00 | 0.00 | 94 | 1006.8 |
| 20260904123023 | 65 | 310 | 1.0 | 5.0 | 0.00 | 0.00 | 0.00 | 94 | 1006.6 |
| 20260904121538 | 64 | 338 | 2.0 | 7.0 | 0.00 | 0.00 | 0.00 | 94 | 1006.4 |
| 20260904114517 | 65 | 252 | 3.0 | 7.0 | 0.00 | 0.00 | 0.00 | 93 | 1006.1 |
| 20260904113100 | 65 | 285 | 2.0 | 6.0 | 0.00 | 0.00 | 0.00 | 93 | 1006.1 |
| 20260904111554 | 65 | 255 | 2.0 | 6.0 | 0.00 | 0.00 | 0.00 | 93 | 1006.0 |
| 20260904110036 | 65 | 294 | 1.0 | 5.0 | 0.00 | 0.00 | 0.00 | 92 | 1005.9 |
| 20260904104559 | 65 | 289 | 2.0 | 7.0 | 0.00 | 0.00 | 0.00 | 92 | 1005.9 |
| 20260904103015 | 65 | 291 | 2.0 | 7.0 | 0.00 | 0.00 | 0.00 | 91 | 1005.7 |
| 20260904101508 | 66 | 304 | 4.0 | 8.0 | 0.00 | 0.00 | 0.00 | 91 | 1005.6 |
| 20260904100058 | 66 | 285 | 3.0 | 8.0 | 0.00 | 0.00 | 0.00 | 91 | 1005.6 |
| 20260904094556 | 66 | 315 | 2.0 | 7.0 | 0.00 | 0.00 | 0.00 | 91 | 1005.5 |
| 20260904093049 | 66 | 301 | 3.0 | 8.0 | 0.00 | 0.00 | 0.00 | 90 | 1005.4 |
| 20260904091506 | 66 | 308 | 4.0 | 11.0 | 0.00 | 0.00 | 0.00 | 90 | 1005.2 |
| 20260904090037 | 67 | 305 | 5.0 | 9.0 | 0.00 | 0.00 | 0.00 | 90 | 1005.3 |
| 20260904084606 | 67 | 304 | 4.0 | 9.0 | 0.00 | 0.00 | 0.00 | 89 | 1005.3 |
| 20260904083011 | 67 | 304 | 4.0 | 10.0 | 0.00 | 0.00 | 0.00 | 88 | 1005.0 |
| 20260904081524 | 68 | 304 | 2.0 | 6.0 | 0.00 | 0.00 | 0.00 | 88 | 1004.9 |